Jackson, MI

4:44 PM EDT on July 20, 2019 (GMT -0400)
Jackson County-Reynolds

Weather History for KJXN - May, 2019

Change the Weather History Date:

Thursday, May 2, 2019

  Actual Average Record
Temperature  
Mean Temperature 55 °F 54 °F  
Max Temperature 63 °F 65 °F 85 °F (1959)
Min Temperature 47 °F 42 °F 27 °F (1966)
Degree Days  
Heating Degree Days 10 12  
Month to date heating degree days 19 24  
Since 1 July heating degree days 6416 6370  
Cooling Degree Days 0 0  
Month to date cooling degree days 0 0  
Year to date cooling degree days 0 6  
Growing Degree Days 6 (Base 50)    
Moisture  
Dew Point 53 °F    
Average Humidity 86    
Maximum Humidity 100    
Minimum Humidity 72    
Precipitation  
Precipitation 0.08 in 0.10 in 1.03 in (1962)
Month to date precipitation 0.14 0.20  
Year to date precipitation 8.38 7.49  
Sea Level Pressure  
Sea Level Pressure 30.07 in    
Wind  
Wind Speed 4 mph (ESE)    
Max Wind Speed 12 mph    
Max Gust Speed 16 mph    
Visibility 7 miles    
Events Rain    
T = Trace of Precipitation, MM = Missing Value Source: NWS Daily Summary

Daily Weather History Graph

Daily Weather History Graph

Search for Another Location

Airport or City:

Astronomy

May. 02, 2019 Rise Set
Actual Time 6:32 AM EDT 8:38 PM EDT
Civil Twilight 6:01 AM EDT 9:08 PM EDT
Nautical Twilight 5:23 AM EDT 9:46 PM EDT
Astronomical Twilight 4:42 AM EDT 10:28 PM EDT
Moon 5:49 AM EDT (5/2) 6:20 PM EDT (5/2)
Length of Visible Light 15h 07m
Length of Day
14h 05m
Waning Crescent, 5% of the Moon is Illuminated
May 2
Waning Crescent
May 4
New
May 11
First Quarter
May 18
Full
May 26
Last Quarter

Hourly Weather History & Observations

Time (EDT) Temp. Dew Point Humidity Pressure Visibility Wind Dir Wind Speed Gust Speed Precip Events Conditions
12:26 AM 51.1 °F 48.0 °F 89% 30.09 in 10.0 mi West 3.5 mph - N/A   Mostly Cloudy
12:56 AM 50.0 °F 48.0 °F 93% 30.09 in 10.0 mi West 3.5 mph - N/A   Mostly Cloudy
1:56 AM 48.9 °F 46.9 °F 93% 30.10 in 10.0 mi West 4.6 mph - N/A   Scattered Clouds
2:56 AM 48.0 °F 46.0 °F 93% 30.09 in 10.0 mi WNW 3.5 mph - N/A   Scattered Clouds
3:56 AM 48.0 °F 45.0 °F 89% 30.11 in 10.0 mi WNW 3.5 mph - N/A   Overcast
4:56 AM 48.0 °F 45.0 °F 89% 30.11 in 10.0 mi Calm Calm - N/A   Overcast
5:56 AM 48.0 °F 45.0 °F 89% 30.11 in 10.0 mi Calm Calm - N/A   Overcast
6:56 AM 48.0 °F 45.0 °F 89% 30.12 in 10.0 mi ENE 3.5 mph - N/A   Overcast
7:56 AM 48.9 °F 46.0 °F 90% 30.14 in 10.0 mi Calm Calm - N/A   Mostly Cloudy
8:56 AM 52.0 °F 46.9 °F 83% 30.13 in 10.0 mi Variable 3.5 mph - N/A   Partly Cloudy
9:56 AM 54.0 °F 48.0 °F 80% 30.13 in 10.0 mi East 4.6 mph - N/A   Scattered Clouds
10:56 AM 57.0 °F 48.9 °F 74% 30.13 in 10.0 mi Variable 4.6 mph - N/A   Mostly Cloudy
11:56 AM 61.0 °F 53.1 °F 75% 30.13 in 10.0 mi Variable 6.9 mph - N/A   Mostly Cloudy
12:56 PM 63.0 °F 54.0 °F 72% 30.13 in 10.0 mi SE 9.2 mph - N/A   Overcast
1:56 PM 60.1 °F 55.0 °F 83% 30.13 in 10.0 mi South 8.1 mph - N/A   Overcast
2:56 PM 61.0 °F 55.9 °F 83% 30.12 in 10.0 mi SSE 6.9 mph - N/A   Overcast
3:56 PM 61.0 °F 57.9 °F 90% 30.09 in 10.0 mi ESE 5.8 mph - N/A   Overcast
4:05 PM 61.0 °F 57.9 °F 90% 30.07 in 9.0 mi ESE 5.8 mph - N/A   Overcast
4:56 PM 60.1 °F 57.9 °F 93% 30.06 in 4.0 mi Calm Calm - 0.01 in Rain Light Rain
5:56 PM 59.0 °F 57.9 °F 96% 30.04 in 1.8 mi East 8.1 mph - 0.03 in Rain Light Rain
5:59 PM 59.0 °F 57.9 °F 96% 30.04 in 2.0 mi East 5.8 mph - 0.00 in Rain Light Rain
6:10 PM 59.0 °F 57.9 °F 96% 30.04 in 4.0 mi East 5.8 mph - 0.00 in   Overcast
6:56 PM 57.9 °F 57.0 °F 97% 30.04 in 4.0 mi East 5.8 mph - 0.00 in   Overcast
7:32 PM 57.9 °F 57.0 °F 97% 30.02 in 3.0 mi East 6.9 mph - N/A   Overcast
7:56 PM 57.9 °F 57.0 °F 97% 30.03 in 4.0 mi ESE 6.9 mph - N/A   Overcast
8:14 PM 57.0 °F 57.0 °F 100% 30.02 in 5.0 mi ESE 6.9 mph - N/A   Overcast
8:48 PM 57.0 °F 55.9 °F 96% 30.02 in 5.0 mi ESE 5.8 mph - N/A   Overcast
8:56 PM 57.0 °F 55.9 °F 96% 30.02 in 5.0 mi East 4.6 mph - N/A   Overcast
9:56 PM 55.9 °F 55.9 °F 100% 30.03 in 4.0 mi ESE 5.8 mph - N/A   Overcast
10:48 PM 55.9 °F 55.9 °F 100% 30.02 in 2.0 mi SE 4.6 mph - 0.03 in Rain Rain
11:16 PM 55.9 °F 55.0 °F 97% 30.02 in 2.5 mi ESE 4.6 mph - 0.03 in   Mist
11:28 PM 55.9 °F 55.0 °F 97% 30.02 in 2.0 mi ESE 3.5 mph - 0.04 in   Overcast
11:56 PM 55.9 °F 55.0 °F 97% 30.01 in 2.5 mi East 3.5 mph - 0.04 in   Overcast